Regional Weather Roundup
Issued by NWS Kansas City/Pleasant Hill, MO

Home | Current Version | Previous Version | Text Only | Print | Product List | Glossary On
Versions: 1 2 3 4 5 6 7 8 9 10 11 12 13 14 15 16 17 18 19 20 21 22 23 24 25 26 27 28 29 30 31 32 33 34 35 36 37 38 39 40 41 42 43 44 45 46 47 48 49 50
000
ASUS43 KEAX 021711
RWREAX

WEATHER ROUNDUP FOR EASTERN KANSAS AND NORTHWEST MISSOURI
NATIONAL WEATHER SERVICE KANSAS CITY/PLEASANT HILL MO
1200 PM CDT TUE SEP 02 2014

KSZ040-057-103>105-MOZ028-029-037-043-021800-
...KANSAS CITY METROPOLITAN AREA...

CITY           SKY/WX    TMP DP  RH WIND       PRES   REMARKS
K.C. INTL      PTSUNNY   76  67  73 CALM      30.01R
K.C. DOWNTOWN  PTSUNNY   78  69  73 VRB3      29.99S
LEES SUMMIT    CLOUDY    75  69  81 S3        30.02R
OLATHE - IXD   CLOUDY    73  68  84 CALM      30.03R
OLATHE - OJC   CLOUDY    73  68  84 E3        30.01R
LAWRENCE       CLOUDY    76  74  93 S3        30.01S

$$

MOZ001>008-011>017-020>025-030>033-038>040-044>046-053-054-021800-
...NORTHERN AND CENTRAL MISSOURI...

CITY           SKY/WX    TMP DP  RH WIND       PRES   REMARKS
ST. JOSEPH     SUNNY     77  64  64 VRB3      30.01R
MOSBY          PTSUNNY   75  64  69 CALM      30.00R
WHITEMAN AFB   PTSUNNY   74  70  87 SW3       30.01R
CLINTON        CLOUDY    73  70  88 S5        30.04R
SEDALIA        CLOUDY    77  71  82 SW7       30.02R
WARSAW         NOT AVBL
CHILLICOTHE      N/A     77  66  68 VRB5      30.00R
KIRKSVILLE     MOSUNNY   78  65  63 VRB5      29.99S

$$

MOZ041-047>049-056>058-063>065-088>090-097-021800-
...EASTERN AND SOUTHERN MISSOURI...

CITY           SKY/WX    TMP DP  RH WIND       PRES   REMARKS
ST. LOUIS INTL CLOUDY    77  70  79 NW8       29.98S
SPIRIT OF STL  CLOUDY    75  72  88 W8        29.98R
COLUMBIA       CLOUDY    75  70  84 W7        30.01R
JEFFERSON CITY CLOUDY    75  70  84 W7        30.00S
ROLLA          CLOUDY    73  66  78 W13       30.01R
LEBANON        CLOUDY    70  64  83 W7        30.06R
OSAGE BEACH    CLOUDY    72  66  83 W7        30.04R
SPRINGFIELD    CLOUDY    69  64  84 SW5       30.04R
BRANSON        CLOUDY    66  64  94 CALM      30.08R
NEVADA         CLOUDY    72  68  88 SW9G16    30.07R
JOPLIN         CLOUDY    69  67  93 SW7       30.07R
WEST PLAINS    CLOUDY    70  66  87 W7        30.05R

$$

IAZ060-094-KSZ022-034>040-054-083-096-NEZ052-066-093-021800-
...KANSAS...SOUTHEAST NEBRASKA AND IOWA...

CITY           SKY/WX    TMP DP  RH WIND       PRES   REMARKS
TOPEKA         MOSUNNY   80  70  71 VRB3      30.01R
MANHATTAN      SUNNY     78  67  68 NE7       30.01R
EMPORIA        CLOUDY    72  70  93 SE5       30.02R
CHANUTE        CLOUDY    74  67  78 S13       30.05R
WICHITA        PTSUNNY   81  66  60 SE10      30.01S
OMAHA          MOSUNNY   73  58  59 VRB3      30.00F
LINCOLN        SUNNY     75  56  51 N5        30.02F
FALLS CITY     SUNNY     79  59  50 NW5       30.00R
LAMONI         SUNNY     75  61  61 NW9       29.98S
DES MOINES     MOSUNNY   75  59  57 VRB5      29.96F

$$




USA.gov is the U.S. government's official web portal to all federal, state and local government web resources and services.